Location: Pic du Midi - T1M
(42.9366°N, 0.1426°E)
Time: 11:26:55
(UTC+01:00)

X-37B - Pass Details

Date: 23 June 2021
Orbit: 383 x 392 km, 45.0° (Epoch: 01 July)

Event Time Altitude Azimuth Distance (km) Brightness Sun altitude
Rises 23:04:10 0° 254° (WSW) 2,243 4.6 -18.3°
Reaches altitude 10° 23:06:14 10° 255° (WSW) 1,391 3.5 -18.5°
Maximum altitude 23:09:21 86° 342° (NNW) 385 0.5 -18.8°
Enters shadow 23:10:00 53° 69° (ENE) 471 0.9 -18.8°
